FW5707 Weather Reports


time (UTC)temp
F
wind
direction
speed
knots
gust
knots
rain 1hr
in
rain 24hr
in
rain mn
in
humidity
%
barometer
mb
20260502203057 75 38 0.0 0.0 0.00 1.04 0.02 45 1018.3
20260502201535 75 63 0.0 0.0 0.00 1.04 0.02 45 1018.6
20260502200108 75 66 0.0 0.0 0.00 1.04 0.02 45 1018.6
20260502194534 74 70 0.0 0.0 0.00 1.20 0.02 43 1018.9
20260502193004 75 37 0.0 0.0 0.00 1.20 0.02 43 1019.0
20260502191544 75 59 0.0 0.0 0.00 1.20 0.02 49 1019.0
20260502190005 74 342 0.0 0.0 0.01 1.20 0.02 46 1019.2
20260502184553 74 29 0.0 0.0 0.01 1.31 0.02 46 1019.3
20260502183012 74 51 0.0 0.0 0.01 1.31 0.02 46 1019.4
20260502181553 73 77 0.0 0.0 0.01 1.31 0.02 53 1019.8
20260502163037 70 45 0.0 0.0 0.00 1.36 0.01 56 1020.5
20260502161601 68 11 0.0 0.0 0.00 1.36 0.01 60 1020.4
20260502151512 65 49 0.0 0.0 0.00 1.38 0.01 73 1019.9
20260502123015 52 189 0.0 0.0 0.00 1.82 0.01 93 1018.1
20260502121600 51 195 0.0 0.0 0.00 1.82 0.01 93 1018.0
20260502114501 52 53 0.0 0.0 0.00 1.83 0.01 93 1017.5
20260502113051 52 53 0.0 0.0 0.00 1.83 0.01 93 1017.2
20260502111519 52 53 0.0 0.0 0.00 1.83 0.01 93 1016.8
20260502110058 53 53 0.0 0.0 0.00 1.83 0.01 93 1016.7
20260502104533 53 53 0.0 0.0 0.00 1.83 0.01 93 1016.6
20260502103006 53 53 0.0 0.0 0.00 1.83 0.01 93 1016.6
20260502101541 53 53 0.0 0.0 0.00 1.83 0.01 93 1016.4
20260502071530 52 53 0.0 0.0 0.00 1.88 0.01 92 1015.9
20260502070100 52 53 0.0 0.0 0.00 1.88 0.01 92 1016.0
20260502064531 53 53 0.0 0.0 0.00 1.89 0.01 92 1015.9
20260502063007 52 53 0.0 0.0 0.00 1.89 0.01 92 1016.2
20260502061538 52 46 0.0 0.0 0.00 1.89 0.01 92 1016.3
20260502054531 52 54 0.0 0.0 0.01 1.92 0.01 92 1016.5
20260502053055 52 46 0.0 0.0 0.01 1.92 0.01 92 1016.9
20260502051533 52 65 0.0 0.0 0.02 1.92 0.01 92 1016.9
20260502050113 52 60 0.0 0.0 0.04 1.91 0.00 92 1016.5
20260502044532 52 41 0.0 0.0 0.06 2.00 1.91 92 1017.1
20260502043108 52 65 0.0 0.0 0.08 2.00 1.91 92 1016.7
20260502041532 52 68 0.0 0.0 0.09 1.99 1.90 92 1017.1
20260502040008 52 50 0.0 0.0 0.07 1.95 1.86 92 1016.6
20260502034535 52 57 0.0 0.0 0.06 1.94 1.85 92 1016.7
20260502033016 52 49 0.0 0.0 0.04 1.92 1.83 92 1016.8
20260502031548 52 55 0.0 0.0 0.03 1.90 1.81 92 1016.6
20260502030006 52 40 0.0 0.0 0.03 1.88 1.79 92 1016.5
20260502024536 52 53 0.0 0.0 0.04 1.88 1.79 92 1016.1
20260502023006 52 65 0.0 0.0 0.04 1.88 1.79 92 1015.4
20260502021545 52 39 0.0 0.0 0.03 1.87 1.78 92 1015.5
20260502020016 52 58 0.0 0.0 0.00 1.84 1.75 92 1015.2
20260502014549 52 57 0.0 0.0 0.00 1.85 1.75 92 1014.6
20260502013014 52 47 0.0 0.0 0.03 1.85 1.75 92 1014.0
20260502011545 52 63 0.0 0.0 0.08 1.85 1.75 92 1013.8
20260502010015 52 70 0.0 0.0 0.13 1.85 1.75 92 1014.1
20260502004606 53 38 0.0 0.0 0.19 1.85 1.75 92 1014.2
20260502003024 53 61 0.0 0.0 0.21 1.81 1.71 92 1014.1
20260502001608 53 52 0.0 0.0 0.21 1.77 1.67 92 1014.6
20260502000046 54 43 0.0 0.0 0.22 1.72 1.62 92 1014.6
20260501234503 55 61 0.0 0.0 0.22 1.66 1.56 92 1015.3
20260501233042 55 96 0.0 0.0 0.27 1.60 1.50 92 1015.4
20260501231505 55 5 0.0 0.0 0.31 1.55 1.45 92 1014.8
20260501230038 55 42 0.0 0.0 0.33 1.50 1.40 92 1014.4
20260501224605 55 51 0.0 0.0 0.30 1.44 1.34 92 1013.9
20260501223039 55 28 0.0 0.0 0.21 1.33 1.23 92 1014.0
20260501221502 55 27 0.0 0.0 0.12 1.23 1.12 92 1014.0
20260501220037 55 50 0.0 0.0 0.07 1.17 1.07 92 1012.7
20260501214511 55 54 0.0 0.0 0.06 1.13 1.03 92 1012.2
20260501213106 55 68 0.0 0.0 0.08 1.12 1.02 92 1011.7
20260501211508 55 64 0.0 0.0 0.09 1.12 1.01 92 1011.6
20260501210048 55 41 0.0 0.0 0.11 1.11 1.00 92 1011.7
20260501204521 55 68 0.0 0.0 0.10 1.10 0.97 92 1012.0